User: anonymous   Login
Location: Bismarck
(46.7731°N, 100.8200°W)
Time: 03:11:03
(UTC-06:00)
Language:

Landsat 7 - Orbit

View from above orbital plane
View from above orbital plane
View from above satellite
View from above satellite

Ground track
Ground track

The orbit data is extracted from the following two-line orbital elements,

1 25682U 99020A   14327.74513131  .00000895  00000-0  20873-3 0  8247
2 25682 098.2242 035.2954 0000803 071.8470 288.2805 14.57104761830222
Epoch (UTC): 23 November 2014 17:52:59
Eccentricity: 0.0000803
inclination: 98.2242°
perigee height: 702 km
apogee height: 703 km
right ascension of ascending node: 35.2954°
argument of perigee: 71.8470°
revolutions per day: 14.57104761
mean anomaly at epoch: 288.2805°
orbit number at epoch: 83022

The dashed part of the orbit path shows where the satellite is in the earth's shadow,  

DLR